Location: Unspecified
(0.0000°N, 0.0000°E)
Time: 22:05:41
(UTC+00:00)

FREGAT DEB - Visible Passes

Search period start: 29 April 2025 00:00
Search period end: 09 May 2025 00:00
Orbit: 1132 x 4706 km, 52.2° (Epoch: 31 October)

Date Brightness Start Highest point End Pass type
(mag) Time Alt. Az. Time Alt. Az. Time Alt. Az.
29 Apr ? 05:20:29 10° S 05:31:26 28° ESE 05:47:07 10° ENE visible
29 Apr ? 18:37:41 10° NNW 18:51:19 60° NE 18:58:28 16° SE visible
29 Apr ? 21:14:04 10° W 21:19:37 16° WSW 21:20:51 16° SW visible
30 Apr ? 05:03:26 10° S 05:13:49 26° ESE 05:28:28 10° ENE visible
30 Apr ? 18:19:54 10° NNW 18:33:45 56° NE 18:42:09 10° SE visible
30 Apr ? 20:55:40 10° WNW 21:02:11 19° WSW 21:04:39 16° SW visible
01 May ? 04:46:25 10° SSE 04:56:11 24° ESE 05:09:43 10° ENE visible
01 May ? 18:02:04 10° NNW 18:16:07 53° NE 18:24:39 10° SE visible
01 May ? 20:37:18 10° WNW 20:44:43 21° WSW 20:48:24 16° SSW visible
02 May ? 04:29:25 10° SSE 04:38:31 21° ESE 04:50:50 10° ENE visible
02 May ? 20:18:58 10° WNW 20:27:12 24° WSW 20:32:06 14° SSW visible
03 May ? 04:12:28 10° SSE 04:20:49 19° ESE 04:31:49 10° E visible
03 May ? 20:00:38 10° WNW 20:09:39 26° WSW 20:15:45 12° S visible
04 May ? 03:55:36 10° SSE 04:03:04 17° ESE 04:12:38 10° E visible
04 May ? 19:42:17 10° WNW 19:52:05 29° WSW 19:59:00 10° S visible
05 May ? 03:38:52 10° SSE 03:45:17 15° ESE 03:53:12 10° E visible
05 May ? 19:23:56 10° WNW 19:34:27 33° WSW 19:41:41 10° S visible
06 May ? 03:22:24 10° SE 03:27:28 13° ESE 03:33:25 10° E visible
06 May ? 19:05:34 10° WNW 19:16:47 36° WSW 19:24:19 10° S visible
07 May ? 03:06:40 10° SE 03:09:36 11° ESE 03:12:49 10° ESE visible
07 May ? 05:26:00 10° SSW 05:38:46 77° ESE 06:00:16 10° NE visible
07 May ? 18:47:10 10° NW 18:59:05 40° WSW 19:06:52 10° S visible
08 May ? 05:08:20 10° SSW 05:20:47 73° ESE 05:41:50 10° NE visible
08 May ? 18:28:44 10° NW 18:41:20 44° WSW 18:49:23 10° S visible
